Flag for Slovakia Weather past 2 weeks in Bratislava, Slovakia

Now
82 °F

Sunny.


Feels Like: 82 °F
Forecast: 58 / 82 °F
Wind: 18 mph from Northeast

Location: Bratislava Ivanka

Current Time: Jul 23, 2014 at 4:36:17 PM

Latest Report: Jul 23, 2014 at 4:00 PM


Visibility: 10 mi

Pressure: 29.80 "Hg

Humidity: 40%

Dew point: 55 °F

Location of BratislavaLocation

Historic Weather in Bratislava — Graph

°F

Bratislava temperature yesterday

Maximum temperature yesterday: 75 °F (at 11:30 AM)
Minimum temperature yesterday: 68 °F (at 2:30 AM)
Average temperature yesterday: 71 °F

Past Weeks' High & Low Weather Summary

 TemperatureHumidityPressure
High90 °F (Jul 20, 3:00 PM)94% (Jul 8, 10:30 PM)30.09 "Hg (Jul 8, 10:30 PM)
Low57 °F (Jul 10, 3:00 AM)31% (Jul 16, 5:00 PM)29.65 "Hg (Jul 8, 5:30 PM)
Average72 °F63%29.89 "Hg
* Reported Jul 8 3:00 PM — Jul 23 3:00 PM, Bratislava, Weather by CustomWeather, © 2014

Note: Actual official high and low records may vary slightly from our data, if they occured in-between our weather recording intervals... More about our weather records

Advertising

Bratislava weather history for previous 24 hours

 ConditionsComfort  
Time TempWeatherWind HumidityBarometerVisibility
3:00 PM
Jul 23
82 °FPassing clouds.10 mph42%29.80 "HgN/A
2:30 PM81 °FPartly sunny.12 mph45%29.80 "HgN/A
2:00 PM81 °FPartly sunny.14 mph48%29.83 "HgN/A
1:30 PM81 °FPartly sunny.14 mph45%29.83 "HgN/A
1:00 PM81 °FPartly sunny.13 mph51%29.83 "HgN/A
12:30 PM81 °FScattered clouds.14 mph48%29.83 "HgN/A
12:00 PM81 °FScattered clouds.17 mph48%29.83 "HgN/A
11:30 AM79 °FScattered clouds.16 mph48%29.83 "HgN/A
11:00 AM79 °FPassing clouds.16 mph51%29.86 "HgN/A
10:00 AM77 °FPassing clouds.18 mph51%29.83 "HgN/A
8:00 AM72 °FSunny.8 mph69%29.86 "Hg10 mi
7:30 AM70 °FSunny.2 mph73%29.86 "Hg10 mi
7:00 AM68 °FSunny.2 mph78%29.86 "Hg10 mi
6:30 AM68 °FSunny.2 mph73%29.86 "Hg10 mi
6:00 AM66 °FClear.7 mph78%29.83 "Hg10 mi
5:30 AM66 °FClear.7 mph78%29.83 "Hg10 mi
5:00 AM66 °FClear.6 mph83%29.83 "Hg10 mi
4:30 AM66 °FClear.6 mph88%29.83 "Hg10 mi
4:00 AM66 °FPassing clouds.5 mph88%29.83 "HgN/A
3:30 AM68 °FPassing clouds.6 mph83%29.83 "HgN/A
3:00 AM68 °FPassing clouds.6 mph88%29.83 "HgN/A
2:30 AM68 °FClear.6 mph88%29.83 "Hg10 mi
2:00 AM70 °FPassing clouds.5 mph83%29.86 "HgN/A
7:00 PM
Jul 22
68 °FSprinkles. Partly sunny.9 mph94%29.86 "HgN/A
6:30 PM70 °FSprinkles. Partly sunny.5 mph88%29.83 "HgN/A
6:00 PM68 °FBroken clouds.2 mph94%29.83 "HgN/A
5:30 PM68 °FSprinkles. Partly sunny.5 mph94%29.83 "HgN/A
5:00 PM70 °FLots of rain. Broken clouds.8 mph88%29.83 "Hg1 mi
4:30 PM73 °FThunderstorms. Broken clouds.17 mph78%29.80 "HgN/A
4:00 PM75 °FThundershowers. Partly sunny.15 mph74%29.80 "HgN/A
Weather by CustomWeather, © 2014

See weather overviewHow to use our weather pages